Regional Weather Roundup
Issued by NWS

Home | Current Version | Previous Version | Graphics & Text | Print | Product List | Glossary On
Versions: 1 2 3 4 5 6 7 8 9 10 11 12 13 14 15 16 17 18 19 20 21 22 23 24 25 26 27
000
ASUS45 KSLC 090910
RWRUT

UTAH REGIONAL WEATHER ROUNDUP
NATIONAL WEATHER SERVICE SALT LAKE CITY UT
200 AM MST FRI DEC 09 2016

UTZ001>011-023>025-091000-

NORTHERN UTAH

CITY           SKY/WX    TMP DP  RH WIND       PRES   REMARKS
BRIGHAM CITY     N/A     26  23  87 CALM      30.18R
HILL AFB       HAIL      27  23  85 NE3       30.15R
LOGAN          FLURRIES  26  24  92 N8        30.15R WCI  18
OGDEN          MIX PCPN  28  26  92 CALM      30.15S
SALT LAKE CITY CLOUDY    29  25  85 NW8       30.16R WCI  21
WENDOVER       PTCLDY    21  16  79 SW3       30.19F
HEBER CITY     FLURRIES  32  30  93 CALM      30.16R

$$

UTZ011>015-024>027-091000-

CENTRAL/NORTHEAST UTAH

CITY           SKY/WX    TMP DP  RH WIND       PRES   REMARKS
PROVO AIRPORT  CLOUDY    35  27  72 S6        30.20S WCI  30
MOAB/CANYONLAN PTCLDY    23   7  50 W3        30.29R
DELTA          CLOUDY    37  19  48 S8        30.19R WCI  31
PRICE          CLOUDY    21   8  57 E3        30.25S
RICHFIELD      CLOUDY    30  19  64 N2        30.23S
ROOSEVELT      CLOUDY    18  14  86 CALM      30.27S
VERNAL         CLOUDY    22  13  68 CALM      30.25R

$$

UTZ013>016-019>022-027-091000-

SOUTHERN UTAH

CITY           SKY/WX    TMP DP  RH WIND       PRES   REMARKS
BRYCE CANYON   PTCLDY    15  10  80 W7        30.25S WCI   5
CEDAR CITY     PTCLDY    25  17  72 E6        30.23R WCI  18
MILFORD        PTCLDY    35  15  44 S14       30.21S WCI  26
ST GEORGE      CLOUDY    32  14  47 SE3       30.30S
HANKSVILLE     PTCLDY    18   5  57 CALM      30.33S
BLANDING       CLOUDY    30  17  58 NW6       30.35R WCI  24

$$

REGIONAL REPORTS     COLORADO/ARIZONA

CITY           SKY/WX    TMP DP  RH WIND       PRES   REMARKS
CRAIG, CO      CLOUDY    24  16  71 E5        30.17R WCI  18
GRAND JUNCTION CLOUDY    21  15  78 CALM      30.28S
RIFLE, CO      CLOUDY    24  14  65 CALM      30.28S
MONTROSE, CO   CLOUDY    27  18  69 SE5       30.27F WCI  22
CORTEZ, CO     CLOUDY    30  24  78 E5        30.29R WCI  25
COLORADO CITY    N/A     23  21  93 E5        30.30R WCI  17
PAGE, AZ       CLEAR     33   8  35 CALM      30.28R
GRAND CANYON   CLEAR     24  22  91 CALM      30.29F
KINGMAN, AZ    CLOUDY    45  23  42 N3        30.26S
FLAGSTAFF, AZ  CLEAR     26  23  88 CALM      30.29F

$$

REGIONAL REPORTS    NEVADA/IDAHO/WYOMING

CITY           SKY/WX    TMP DP  RH WIND       PRES   REMARKS
LAS VEGAS, NV  CLOUDY    47  12  24 NW5       30.27R
ELY, NY        CLEAR     20  10  65 SE7       30.23R WCI  11
ELKO, NV       CLOUDY    33  29  85 CALM      30.14R
POCATELLO, ID  LGT SNOW  20  18  92 NE5       30.12R FOG     WCI  13
BURLEY, ID     FRZ RAIN  23  21  92 NE5       30.07R WCI  17
FORT BRIDGER,  FLURRIES  15  14  96 NW3       30.11R
EVANSTON, WY   LGT SNOW  29  26  89 SW20      30.08S FOG     WCI  16
ROCK SPRINGS,  LGT SNOW  10   7  87 W10       30.10R FOG     WCI  -4

$$




USA.gov is the U.S. government's official web portal to all federal, state and local government web resources and services.